Location: Bratislava
(0.0000°N, 17.1167°E)
Time: 03:15:28
(UTC+01:00)

Ariane 44P Rocket - Pass Details

Date: 24 January 2021
Orbit: 274 x 24561 km, 4.1° (Epoch: 06 March)

Event Time Altitude Azimuth Distance (km) Brightness Sun altitude
Rises 19:04:09 0° 276° (W) 2,061 6.5 -14.3°
Reaches altitude 10° 19:05:25 10° 281° (W) 1,437 5.4 -14.6°
Maximum altitude 19:08:04 61° 3° (N) 740 2.8 -15.2°
Enters shadow 19:12:28 22° 78° (ENE) 2,560 5.0 -16.2°
